Location: Hoyos del Collado
(40.3594°N, 5.2003°W)
Time: 14:47:36
(UTC+00:00)

ACS3 Solar Sail - Visible Passes

Search period start: 13 July 2025 00:00
Search period end: 23 July 2025 00:00
Orbit: 912 x 1023 km, 97.5° (Epoch: 12 July)

Date Brightness Start Highest point End Pass type
(mag) Time Alt. Az. Time Alt. Az. Time Alt. Az.
16 Jul 4.3 03:57:18 10° NE 04:01:03 17° E 04:04:50 10° SE visible
17 Jul 3.9 04:18:48 10° NE 04:23:48 27° E 04:28:53 10° SSE visible
20 Jul 4.4 03:44:40 10° ENE 03:47:36 14° E 03:50:34 10° ESE visible
21 Jul 4.1 04:05:43 10° NE 04:10:21 22° E 04:15:01 10° SE visible
22 Jul 3.5 04:27:29 10° NNE 04:33:00 34° E 04:38:33 10° SSE visible
